Theta_e
303 303 302 301 300 297 294 294 290 288 285 284 284 284 285 284 286 286 288 288 287 286 286 286 284 285 284 283 282 282 282 282 282 280 281 283 281 282 282 283 283 283 283
302 302 301 300 297 294 292 291 289 287 285 284 284 283 283 284 286 284 286 286 285 284 284 284 283 282 282 281 281 281 281 281 282 280 281 280 280 282 282 282 281 281 282
301 300 299 297 294 292 291 289 288 286 284 283 283 282 282 282 283 284 283 286 285 284 284 283 282 281 279 280 280 280 280 279 280 280 280 279 280 281 281 282 282 282 282
299 298 297 296 294 292 290 287 286 285 283 283 283 282 281 281 281 282 282 283 284 283 284 283 282 281 280 279 279 280 279 279 279 279 279 278 279 280 279 279 280 282 281
296 296 296 295 294 291 288 287 286 285 284 283 282 281 281 280 280 280 281 282 283 282 282 282 281 281 282 281 279 280 279 279 279 278 278 278 278 278 278 280 278 280 281
295 295 295 294 291 289 287 286 285 284 283 282 281 280 280 280 284 284 282 282 281 281 280 280 280 280 281 282 282 282 281 280 279 279 279 278 278 278 279 279 278 277 276
293 293 292 290 288 288 286 285 285 284 282 281 281 280 280 280 285 285 283 281 281 281 279 279 279 279 279 280 283 283 282 282 281 279 279 279 279 280 280 278 278 277 277
290 289 289 288 287 286 284 283 283 282 282 281 280 280 280 280 286 285 283 281 281 280 280 280 280 279 279 278 279 279 279 279 281 282 282 282 281 281 280 279 279 279 279
288 288 287 287 286 285 284 283 283 282 282 282 281 280 280 281 286 285 282 281 281 280 280 281 280 279 280 281 278 277 278 278 280 281 282 283 283 284 283 282 280 276 275
287 287 287 286 285 284 284 284 284 282 281 280 280 280 280 281 286 286 282 281 281 280 279 279 280 280 280 282 281 280 278 279 279 279 279 280 281 281 282 281 280 277 277
286 285 285 285 284 284 284 284 282 281 280 279 279 279 280 282 285 286 285 282 283 281 280 279 279 282 281 282 283 281 280 281 281 281 281 280 280 279 278 279 278 277 275
284 284 283 283 284 284 283 282 282 281 280 280 280 279 280 281 284 286 287 285 286 284 282 282 281 283 284 284 284 284 283 283 283 281 279 278 277 276 276 276 276 275 276
282 281 282 283 283 283 282 282 281 281 280 279 279 278 278 279 282 286 287 287 287 284 284 282 282 283 284 284 283 281 277 278 277 276 275 275 275 275 274 274 274 274 273
281 281 282 282 282 282 283 282 282 281 281 279 279 279 278 278 280 283 285 286 286 285 284 283 282 282 281 276 276 275 275 274 273 273 273 273 273 272 271 272 270 270 269
282 282 282 283 283 282 282 282 282 283 283 282 282 282 280 278 280 282 283 283 284 283 277 276 275 275 274 273 272 271 271 271 270 270 269 269 269 269 268 269 268 268 266
282 283 283 282 282 281 281 281 283 283 284 284 284 284 284 284 284 283 283 284 283 281 276 275 274 274 273 272 271 269 268 266 267 267 267 266 266 266 266 266 266 265 264
283 283 282 281 280 279 279 280 279 282 284 284 285 285 283 283 284 284 284 284 282 281 275 274 273 272 271 269 267 266 266 265 264 265 265 265 264 264 263 264 264 263 263
283 281 282 280 280 280 280 280 280 279 278 278 281 281 281 282 283 283 283 279 273 272 272 272 271 269 267 266 265 264 264 263 264 264 263 263 262 262 262 262 262 261 261
279 279 280 280 279 279 279 279 279 278 277 275 277 275 279 281 281 282 278 274 272 270 268 268 267 265 264 264 263 262 262 262 262 261 261 261 261 261 260 261 261 260 260
271 271 275 275 274 275 276 275 275 274 273 274 275 274 272 272 271 268 267 267 268 268 265 265 263 262 262 262 261 261 261 259 260 260 260 260 260 260 260 260 260 260 260
270 269 268 272 273 273 273 273 273 272 271 271 272 267 268 272 269 267 265 264 264 263 262 262 261 260 260 260 260 260 259 260 260 259 259 259 259 258 259 260 259 259 259
269 269 270 270 269 269 270 271 270 270 269 268 266 266 272 267 265 264 263 262 261 262 261 261 260 260 259 259 259 259 259 258 259 258 258 258 258 258 258 259 258 259 259
267 267 266 265 265 263 265 265 266 267 266 266 265 264 265 265 263 262 261 260 259 258 257 257 259 257 257 256 258 259 258 258 258 259 258 258 257 258 258 258 258 257 257
265 265 264 263 264 264 264 264 263 262 264 264 263 263 263 262 261 260 259 259 258 258 257 255 256 256 257 256 256 256 256 256 257 256 256 256 257 257 256 257 257 257 256
263 263 263 263 262 263 261 262 263 262 262 261 261 261 260 260 259 259 259 258 257 257 256 255 255 255 255 254 255 255 255 256 256 255 255 255 255 255 255 255 255 256 255
260 261 260 260 260 261 261 261 261 261 260 260 260 259 259 259 259 259 258 257 257 257 257 257 256 255 255 255 255 255 254 256 254 253 255 255 255 255 255 254 253 254 254
Wind_Speed
14 14 13 12 12 10 9 10 10 10 10 11 10 10 12 12 11 11 12 14 15 13 11 11 10 9 7 6 5 4 5 3 2 3 3 4 5 5 5 5 5 6 6
14 15 14 12 12 11 9 10 10 10 9 11 11 10 9 11 13 12 15 13 15 14 13 13 11 7 8 6 4 5 4 3 2 4 4 4 5 4 6 7 5 5 7
15 14 14 14 14 12 11 11 10 10 10 10 11 11 11 9 9 12 13 15 14 15 13 13 13 11 8 6 5 5 5 4 3 3 2 3 3 4 5 6 7 8 6
14 15 14 13 14 11 10 10 11 11 12 12 12 11 11 9 7 8 11 12 14 12 12 12 13 10 9 8 6 6 5 5 4 4 3 4 3 3 5 6 7 6 8
14 14 14 12 13 11 10 10 10 11 10 11 11 9 9 9 7 9 10 12 12 12 11 9 9 9 11 10 6 7 7 6 5 4 5 4 6 6 6 5 8 9 10
14 13 11 10 10 10 10 11 11 11 10 11 12 12 12 8 16 17 12 10 10 11 11 9 7 8 8 11 12 9 8 7 6 4 6 7 8 7 7 7 9 9 8
12 10 10 10 10 10 9 10 11 13 11 12 12 13 13 11 22 21 18 9 10 9 9 9 7 5 6 6 11 11 10 12 11 5 7 8 10 9 9 10 11 11 11
11 10 10 10 10 10 9 10 9 9 12 11 11 11 11 9 22 21 18 10 8 8 8 8 7 6 8 8 7 6 6 6 7 7 9 10 10 9 10 11 12 12 10
10 10 10 11 10 11 12 11 9 8 8 9 9 10 11 9 22 21 15 9 9 7 7 7 6 7 9 13 7 6 7 8 8 14 17 18 19 19 17 9 6 8 10
10 10 10 10 11 11 10 9 8 8 8 7 7 8 10 11 21 23 14 8 9 7 6 7 12 10 11 13 8 8 9 8 7 7 9 11 13 11 16 11 9 11 11
7 8 9 10 10 11 11 9 11 9 9 9 9 8 8 10 15 23 21 9 9 8 7 7 8 17 15 15 15 8 9 7 9 8 8 7 6 6 7 8 9 9 10
6 6 6 7 7 8 11 10 11 11 11 10 10 8 7 9 17 25 25 18 15 8 7 6 7 16 16 15 12 13 14 12 5 4 4 5 6 7 7 7 10 11 10
8 7 6 6 6 8 10 11 10 10 9 9 9 9 8 7 6 20 23 20 16 7 4 9 12 14 14 11 11 1 5 1 2 4 6 7 6 7 9 9 9 9 10
9 8 8 8 8 8 6 7 7 9 8 7 7 8 8 8 9 8 9 10 13 10 10 7 8 7 5 8 5 4 3 2 2 3 5 6 6 7 7 7 8 8 9
8 7 7 7 7 8 6 7 7 7 9 9 8 8 10 9 11 14 12 8 6 7 8 5 4 5 5 5 4 3 2 0 2 2 4 5 6 7 7 7 8 8 9
9 7 7 7 6 6 6 5 5 7 11 12 13 11 7 11 17 23 23 20 17 19 5 5 6 6 6 5 5 4 2 2 0 1 2 4 5 6 7 7 7 7 9
8 7 6 6 6 7 6 7 7 4 7 8 10 13 13 12 16 19 19 17 16 18 5 6 7 7 5 5 4 4 3 3 2 2 1 2 3 4 6 6 7 7 8
6 8 6 6 6 6 6 5 5 7 7 5 5 6 9 11 13 14 16 15 7 4 5 6 6 6 6 6 6 5 4 4 3 3 2 2 3 4 5 6 6 7 8
5 4 5 5 5 5 5 5 5 5 5 5 6 4 3 13 10 16 15 6 6 5 4 5 4 5 5 5 4 4 5 4 4 3 3 3 3 4 5 5 6 7 8
5 5 4 4 5 4 4 4 4 4 5 5 6 5 2 5 3 3 3 4 4 4 4 5 5 5 5 5 5 5 5 5 4 4 3 3 4 4 5 5 5 6 6
4 4 4 5 5 4 4 4 4 5 6 5 4 3 3 5 4 3 3 3 3 4 5 6 6 6 5 5 5 5 4 4 4 3 4 4 4 4 5 5 5 5 6
4 4 3 4 4 4 4 3 4 4 5 5 3 3 10 2 4 3 3 4 3 3 3 5 5 5 6 6 6 5 5 5 5 4 5 5 5 5 5 5 5 5 5
4 4 4 4 5 5 4 3 3 3 4 4 4 4 3 3 3 4 4 4 4 3 3 3 4 4 4 4 4 5 6 6 5 5 6 5 5 5 5 5 5 5 5
5 5 5 4 4 3 3 3 3 2 3 4 5 5 5 4 4 4 3 4 4 4 4 4 5 6 5 5 5 6 6 5 4 6 7 6 6 6 6 6 6 6 5
5 5 4 3 3 3 3 2 2 3 3 3 4 4 4 3 4 4 4 4 4 5 6 6 5 7 9 9 9 9 8 9 8 7 6 8 9 9 7 6 6 6 6
5 5 4 3 3 2 2 0 1 1 2 3 3 4 4 5 5 5 5 6 6 6 6 6 8 11 10 9 11 11 10 11 10 11 8 8 8 8 7 8 9 6 6
Wind_Direction
207 208 206 200 196 184 180 182 178 170 160 162 166 166 175 170 165 161 165 155 152 147 146 143 133 134 124 116 101 101 93 89 144 142 214 210 252 242 254 276 289 305 310
206 204 203 196 188 184 185 179 173 173 168 167 168 165 176 175 163 160 156 164 154 151 148 142 137 132 124 117 134 118 134 140 162 202 191 224 242 272 283 292 307 310 315
202 205 205 198 189 187 185 175 172 166 168 166 169 173 172 173 179 159 157 156 159 152 152 150 148 149 145 150 145 154 158 164 188 216 238 236 270 275 294 302 313 306 300
204 204 205 200 196 191 180 174 172 171 169 176 182 176 169 163 175 159 147 151 153 155 154 156 160 157 156 164 165 170 170 176 194 223 249 267 267 312 296 298 305 309 308
211 209 210 196 193 181 174 174 174 177 178 176 167 165 167 169 168 164 156 147 154 148 153 153 154 162 171 163 161 174 181 190 205 225 243 256 272 286 284 309 298 304 302
212 214 206 197 186 182 173 172 172 175 172 170 175 171 169 174 178 167 152 148 149 152 153 150 147 167 174 182 197 190 194 191 213 222 242 251 269 271 280 286 292 299 302
210 206 196 181 181 183 173 171 177 180 174 183 181 176 176 170 173 166 160 157 153 154 153 151 159 171 175 194 212 217 218 222 229 222 248 255 275 276 281 283 279 277 277
202 195 180 172 175 172 172 180 177 178 178 178 180 177 163 164 167 168 163 152 144 143 152 158 158 183 194 194 204 222 238 244 247 248 254 267 269 274 268 271 273 279 280
193 193 184 171 173 170 172 180 172 168 173 171 170 165 160 152 170 171 165 144 146 145 151 156 175 212 196 205 198 226 239 247 248 255 260 267 271 271 270 272 268 259 275
183 184 171 164 168 169 165 168 161 160 156 144 143 145 156 158 179 177 169 155 154 160 170 185 203 211 206 209 222 228 244 249 243 248 257 265 268 272 277 272 274 273 280
155 158 157 163 164 157 150 152 148 145 137 143 146 156 163 171 180 182 182 177 172 170 182 188 199 207 211 220 227 228 239 261 257 255 253 258 261 271 279 276 277 274 280
137 134 144 146 144 147 145 144 148 146 150 155 162 162 173 180 188 193 193 193 183 174 184 188 190 205 212 219 228 243 256 271 277 290 310 296 293 290 289 291 293 287 283
106 103 117 122 138 147 149 150 154 164 165 166 171 172 174 179 205 200 200 197 204 195 172 177 179 202 216 223 231 223 85 58 296 284 289 296 305 309 307 298 303 296 289
120 130 135 136 145 149 154 157 159 170 169 167 175 177 166 173 185 198 202 207 209 202 182 178 182 169 154 122 114 94 77 50 345 298 296 303 306 304 307 315 312 315 308
118 134 140 142 160 158 154 167 172 178 179 173 185 185 175 186 199 191 191 193 191 168 123 117 136 152 156 146 132 124 125 133 274 299 297 307 311 317 319 330 324 319 306
138 150 150 148 153 145 143 138 162 178 185 189 189 183 189 211 195 197 201 205 200 164 148 170 174 178 182 172 170 167 174 168 116 321 305 306 316 324 324 326 317 313 304
142 142 137 134 143 140 143 148 132 119 149 181 187 193 185 180 180 191 198 195 184 170 166 176 175 176 167 165 165 171 171 156 144 204 261 302 315 315 310 312 312 309 303
136 143 148 144 146 149 161 163 158 171 159 146 156 173 190 179 180 177 173 137 125 125 160 171 172 167 167 168 166 167 161 169 184 195 220 259 280 287 294 297 300 301 300
137 141 126 132 143 145 150 155 167 165 148 141 132 75 153 130 134 154 135 148 157 154 148 165 164 161 159 157 157 162 172 179 179 193 217 238 256 265 274 281 285 288 292
91 99 131 138 131 137 150 158 152 142 141 162 169 154 123 110 134 113 89 126 149 155 160 158 155 155 159 166 168 172 181 184 186 193 210 226 238 243 256 263 270 284 288
108 120 116 124 140 150 158 170 157 159 171 179 164 162 141 166 152 144 144 156 171 172 169 165 165 166 168 169 174 183 193 201 200 204 215 223 226 239 243 257 269 266 274
99 116 118 112 122 140 154 156 165 176 180 178 161 191 173 133 151 162 177 182 185 181 172 171 172 179 178 179 182 191 201 211 207 213 226 226 228 234 238 249 257 266 272
89 98 89 81 83 100 104 101 132 158 167 172 167 178 183 185 191 193 190 176 175 180 172 186 187 185 187 188 193 205 213 215 215 214 221 225 225 234 233 246 248 252 258
80 79 83 81 80 96 106 119 123 132 162 168 180 187 194 193 195 200 194 180 183 197 195 203 215 210 200 199 205 213 223 226 224 226 222 231 237 231 238 241 245 247 254
71 79 81 94 118 117 130 143 161 173 186 191 195 202 198 198 201 207 206 204 206 209 215 216 220 224 222 220 221 219 223 229 226 223 219 225 236 236 234 240 246 251 246
58 63 68 71 66 60 41 355 262 242 230 220 220 214 210 212 219 217 213 210 214 221 227 228 231 228 228 231 231 228 227 229 227 228 222 226 228 230 226 228 234 241 240